FW6829 Weather Reports


time (UTC)temp
C
wind
direction
speed
KPH
gust
KPH
rain 1hr
cm
rain 24hr
cm
rain mn
cm
humidity
%
barometer
mb
20210418075312 8 114 3.2 17.7 0.00 0.00 0.00 34 566.4
20210418074518 8 170 3.2 17.7 0.00 0.00 0.00 35 633.7
20210418074023 8 141 3.2 17.7 0.00 0.00 0.00 34 582.2
20210418073517 8 134 1.6 17.7 0.00 0.00 0.00 34 561.1
20210418073037 8 164 1.6 17.7 0.00 0.00 0.00 33 561.0
20210418072720 8 126 1.6 17.7 0.00 0.00 0.00 36 537.8
20210418072133 7 140 1.6 17.7 0.00 0.00 0.00 39 552.9
20210418071527 7 141 1.6 17.7 0.00 0.00 0.00 38 557.6
20210418071037 7 157 1.6 17.7 0.00 0.00 0.00 41 557.0
20210418070518 6 87 3.2 17.7 0.00 0.00 0.00 43 549.1
20210418070026 6 86 1.6 17.7 0.00 0.00 0.00 45 680.5
20210418065752 5 222 0.0 17.7 0.00 0.00 0.00 48 833.2
20210418065231 5 225 0.0 17.7 0.00 0.00 0.00 47 847.1
20210418064514 5 232 0.0 17.7 0.00 0.00 0.00 49 863.8
20210418064021 4 237 0.0 17.7 0.00 0.00 0.00 51 882.0
20210418063513 3 262 0.0 17.7 0.00 0.00 0.00 53 901.1
20210418063024 3 255 0.0 17.7 0.00 0.00 0.00 54 860.1
20210418062742 3 222 0.0 17.7 0.00 0.00 0.00 57 812.8
20210418062147 2 217 0.0 17.7 0.00 0.00 0.00 58 810.2
20210418061528 2 221 0.0 17.7 0.00 0.00 0.00 59 812.5
20210418061025 1 222 0.0 17.7 0.00 0.00 0.00 63 808.6
20210418060513 1 217 0.0 17.7 0.00 0.00 0.00 64 800.5
20210418060147 0 215 0.0 17.7 0.00 0.00 0.00 68 800.1
20210418055913 0 218 0.0 17.7 0.00 0.00 0.00 69 800.2
20210418055319 0 216 0.0 17.7 0.00 0.00 0.00 69 795.5
20210418054535 0 214 0.0 17.7 0.00 0.00 0.00 68 793.8
20210418054026 0 213 0.0 17.7 0.00 0.00 0.00 68 794.0
20210418053530 0 215 0.0 17.7 0.00 0.00 0.00 70 797.3
20210418053051 0 217 0.0 17.7 0.00 0.00 0.00 70 797.7
20210418052848 -1 215 0.0 17.7 0.00 0.00 0.00 70 796.1
20210418052309 -1 213 0.0 17.7 0.00 0.00 0.00 70 794.8
20210418051517 -1 214 0.0 17.7 0.00 0.00 0.00 70 799.1
20210418051022 -1 218 0.0 17.7 0.00 0.00 0.00 70 802.0
20210418050527 -1 218 0.0 17.7 0.00 0.00 0.00 70 797.1
20210418050049 -1 211 0.0 17.7 0.00 0.00 0.00 70 790.2
20210418045826 -1 212 0.0 17.7 0.00 0.00 0.00 72 791.3
20210418045141 -1 212 0.0 17.7 0.00 0.00 0.00 73 791.1
20210418044518 -2 212 0.0 17.7 0.00 0.00 0.00 74 790.3
20210418044021 -2 212 0.0 17.7 0.00 0.00 0.00 76 790.0
20210418043529 -2 212 0.0 17.7 0.00 0.00 0.00 76 790.1
20210418043028 -2 212 0.0 17.7 0.00 0.00 0.00 75 789.5
20210418042842 -2 213 0.0 17.7 0.00 0.00 0.00 76 790.8
20210418042334 -2 213 0.0 17.7 0.00 0.00 0.00 76 791.6
20210418041515 -2 213 0.0 17.7 0.00 0.00 0.00 76 791.0
20210418041027 -2 213 0.0 17.7 0.00 0.00 0.00 77 790.8
20210418040523 -2 213 0.0 17.7 0.00 0.00 0.00 76 790.6
20210418040028 -2 213 0.0 17.7 0.00 0.00 0.00 76 789.6
20210418035753 -2 213 0.0 17.7 0.00 0.00 0.00 76 788.6
20210418035203 -2 212 0.0 17.7 0.00 0.00 0.00 75 788.8
20210418034546 -2 212 0.0 17.7 0.00 0.00 0.00 75 789.5
20210418034034 -2 213 0.0 17.7 0.00 0.00 0.00 75 790.2
20210418033524 -2 213 0.0 17.7 0.00 0.00 0.00 74 790.4
20210418033049 -2 213 0.0 17.7 0.00 0.00 0.00 74 790.5
20210418032913 -2 213 0.0 17.7 0.00 0.00 0.00 73 790.4
20210418032423 -2 213 0.0 17.7 0.00 0.00 0.00 74 790.0
20210418031512 -2 213 0.0 17.7 0.00 0.00 0.00 73 790.7
20210418031025 -2 213 0.0 17.7 0.00 0.00 0.00 73 790.7
20210418030511 -2 213 0.0 17.7 0.00 0.00 0.00 74 791.2
20210418030232 -2 213 0.0 17.7 0.00 0.00 0.00 74 790.9
20210418025922 -2 213 0.0 17.7 0.00 0.00 0.00 75 791.0
20210418025345 -2 213 0.0 17.7 0.00 0.00 0.00 74 791.0
20210418024534 -2 213 0.0 17.7 0.00 0.00 0.00 74 791.3
20210418024043 -2 213 0.0 17.7 0.00 0.00 0.00 74 791.6
20210418023514 -2 213 0.0 17.7 0.00 0.00 0.00 74 790.8
20210418023031 -2 213 0.0 17.7 0.00 0.00 0.00 74 789.5
20210418022749 -1 213 0.0 17.7 0.00 0.00 0.00 74 789.8
20210418022051 -1 212 0.0 17.7 0.00 0.00 0.00 73 789.8
20210418021521 -1 212 0.0 17.7 0.00 0.00 0.00 73 790.4
20210418021023 -1 214 0.0 17.7 0.00 0.00 0.00 73 792.5
20210418020522 -1 214 0.0 17.7 0.00 0.00 0.00 73 792.2
20210418020026 -1 214 0.0 17.7 0.00 0.00 0.00 71 792.2
20210418015844 -1 214 0.0 17.7 0.00 0.00 0.00 71 792.2
20210418015307 -1 214 0.0 17.7 0.00 0.00 0.00 70 792.4
20210418014519 -1 214 0.0 17.7 0.00 0.00 0.00 69 792.6
20210418014023 0 214 0.0 17.7 0.00 0.00 0.00 68 793.1
20210418013534 0 214 0.0 17.7 0.00 0.00 0.00 67 793.4
20210418013216 0 214 1.6 17.7 0.00 0.00 0.00 66 794.6
20210418013022 0 215 0.0 17.7 0.00 0.00 0.00 67 796.2
20210418012250 0 215 0.0 17.7 0.00 0.00 0.00 67 796.7
20210418011515 0 215 0.0 17.7 0.00 0.00 0.00 66 797.5
20210418011029 0 216 0.0 17.7 0.00 0.00 0.00 66 800.1
20210418010528 0 216 0.0 17.7 0.00 0.00 0.00 66 800.0
20210418010028 0 215 0.0 17.7 0.00 0.00 0.00 66 798.7
20210418005818 0 217 0.0 17.7 0.00 0.00 0.00 67 800.1
20210418005222 0 217 0.0 17.7 0.00 0.00 0.00 66 799.3
20210418004517 0 215 0.0 17.7 0.00 0.00 0.00 66 798.0
20210418004027 0 216 0.0 17.7 0.00 0.00 0.00 65 799.7
20210418003521 0 216 0.0 17.7 0.00 0.00 0.00 65 798.5
20210418003027 0 215 0.0 17.7 0.00 0.00 0.00 65 798.6
20210418002800 0 216 0.0 17.7 0.00 0.00 0.00 65 798.8
20210418002147 0 216 0.0 17.7 0.00 0.00 0.00 65 798.5
20210418001526 0 215 0.0 17.7 0.00 0.00 0.00 64 799.9
20210418001026 0 215 0.0 17.7 0.00 0.00 0.00 65 803.6
20210418000528 0 218 0.0 17.7 0.00 0.00 0.00 65 807.0
20210418000038 0 218 0.0 17.7 0.00 0.00 0.00 66 809.4
20210417235824 0 218 0.0 17.7 0.00 0.00 0.00 65 811.7
20210417235249 1 218 0.0 17.7 0.00 0.00 0.00 64 818.9
20210417234516 1 221 0.0 17.7 0.00 0.00 0.00 62 836.0
20210417234028 1 235 0.0 17.7 0.00 0.00 0.00 60 861.5
20210417233524 2 238 0.0 17.7 0.00 0.00 0.00 59 862.8
20210417233023 2 237 0.0 17.7 0.00 0.00 0.00 58 861.5
20210417232806 2 237 0.0 17.7 0.00 0.00 0.00 58 861.1
20210417232139 2 236 0.0 17.7 0.00 0.00 0.00 56 860.6
20210417231515 2 235 0.0 17.7 0.00 0.00 0.00 56 859.3
20210417231028 2 235 0.0 17.7 0.00 0.00 0.00 58 860.6
20210417230514 2 237 0.0 17.7 0.00 0.00 0.00 58 861.2
20210417230108 2 237 1.6 17.7 0.00 0.00 0.00 58 861.8
20210417225847 2 239 0.0 17.7 0.00 0.00 0.00 59 863.7
20210417225137 2 236 0.0 17.7 0.00 0.00 0.00 58 860.4
20210417224517 2 236 0.0 17.7 0.00 0.00 0.00 58 861.8
20210417224034 2 237 0.0 17.7 0.00 0.00 0.00 58 863.2
20210417223526 2 236 0.0 17.7 0.00 0.00 0.00 58 862.8
20210417223034 2 236 0.0 17.7 0.00 0.00 0.00 59 864.3
20210417222914 1 238 0.0 17.7 0.00 0.00 0.00 59 866.9
20210417222325 1 239 1.6 17.7 0.00 0.00 0.00 62 867.2
20210417221521 1 239 1.6 17.7 0.00 0.00 0.00 60 866.4
20210417221021 1 238 0.0 17.7 0.00 0.00 0.00 63 863.9
20210417220514 0 238 0.0 17.7 0.00 0.00 0.00 65 860.0
20210417220024 0 235 0.0 17.7 0.00 0.00 0.00 66 855.4
20210417215645 0 234 0.0 17.7 0.00 0.00 0.00 66 855.2
20210417215045 0 237 0.0 17.7 0.00 0.00 0.00 67 856.5
20210417214520 0 236 0.0 17.7 0.00 0.00 0.00 67 851.5
20210417214023 0 233 0.0 17.7 0.00 0.00 0.00 67 846.7
20210417213519 0 232 0.0 17.7 0.00 0.00 0.00 68 845.0
20210417213025 0 233 0.0 17.7 0.00 0.00 0.00 68 845.5
20210417212724 0 234 0.0 17.7 0.00 0.00 0.00 68 836.6
20210417212047 0 223 0.0 17.7 0.00 0.00 0.00 67 828.1
20210417211518 0 230 0.0 17.7 0.00 0.00 0.00 66 843.1
20210417211038 0 234 0.0 17.7 0.00 0.00 0.00 66 843.9
20210417210517 0 229 0.0 17.7 0.00 0.00 0.00 66 847.5
20210417210020 0 235 0.0 17.7 0.00 0.00 0.00 66 847.0
20210417205839 0 230 0.0 17.7 0.00 0.00 0.00 66 848.7
20210417205205 0 234 0.0 17.7 0.00 0.00 0.00 65 850.1
20210417204511 0 231 0.0 17.7 0.00 0.00 0.00 64 851.6
20210417204032 1 236 0.0 17.7 0.00 0.00 0.00 64 855.0
20210417203505 1 235 0.0 17.7 0.00 0.00 0.00 61 852.4
20210417203021 1 234 1.6 17.7 0.00 0.00 0.00 61 852.9
20210417202751 1 236 0.0 17.7 0.00 0.00 0.00 61 854.9
20210417202112 1 235 0.0 17.7 0.00 0.00 0.00 62 853.9
20210417201511 1 234 0.0 17.7 0.00 0.00 0.00 62 851.7
20210417201019 1 232 0.0 17.7 0.00 0.00 0.00 63 850.2
20210417200511 1 236 0.0 17.7 0.00 0.00 0.00 63 856.6
20210417200022 1 236 0.0 17.7 0.00 0.00 0.00 63 856.4
20210417195738 1 236 0.0 17.7 0.00 0.00 0.00 61 856.4
20210417195157 1 237 0.0 17.7 0.00 0.00 0.00 61 853.5
20210417194513 2 232 0.0 17.7 0.00 0.00 0.00 60 848.7
20210417194024 2 235 0.0 17.7 0.00 0.00 0.00 59 852.9
20210417193517 2 239 0.0 17.7 0.00 0.00 0.00 57 851.9
20210417193021 3 231 0.0 17.7 0.00 0.00 0.00 55 843.4
20210417192817 3 232 0.0 17.7 0.00 0.00 0.00 54 840.3
20210417192058 3 231 0.0 17.7 0.00 0.00 0.00 54 836.4
20210417191520 3 230 1.6 17.7 0.00 0.00 0.00 53 837.6
20210417191019 4 226 0.0 17.7 0.00 0.00 0.00 52 837.1
20210417190515 4 230 0.0 17.7 0.00 0.00 0.00 52 843.3
20210417190026 4 230 0.0 17.7 0.00 0.00 0.00 50 849.1
20210417185738 5 237 0.0 17.7 0.00 0.00 0.00 49 862.2
20210417185107 5 236 3.2 17.7 0.00 0.00 0.00 48 864.7
20210417184512 5 242 0.0 17.7 0.00 0.00 0.00 46 872.7
20210417184020 5 242 1.6 17.7 0.00 0.00 0.00 46 873.6
20210417183508 5 242 1.6 17.7 0.00 0.00 0.00 46 872.6
20210417183021 5 242 1.6 17.7 0.00 0.00 0.00 46 874.1
20210417182855 5 245 1.6 17.7 0.00 0.00 0.00 46 871.4
20210417182258 5 244 1.6 17.7 0.00 0.00 0.00 45 861.3
20210417181509 6 243 1.6 17.7 0.00 0.00 0.00 46 843.6
20210417181022 6 229 1.6 17.7 0.00 0.00 0.00 46 822.5
20210417180523 6 229 1.6 17.7 0.00 0.00 0.00 46 810.0
20210417180009 6 221 1.6 17.7 0.00 0.00 0.00 45 794.9
20210417175748 6 217 1.6 17.7 0.00 0.00 0.00 45 782.6
20210417175152 6 210 1.6 17.7 0.00 0.00 0.00 44 774.3
20210417174505 6 209 1.6 17.7 0.00 0.00 0.00 45 769.4
20210417174018 6 206 1.6 17.7 0.00 0.00 0.00 45 766.9
20210417173508 6 206 1.6 17.7 0.00 0.00 0.00 45 766.1
20210417173024 6 206 1.6 17.7 0.00 0.00 0.00 44 764.9
20210417172833 6 204 0.0 17.7 0.00 0.00 0.00 45 762.8
20210417172042 6 207 1.6 17.7 0.00 0.00 0.00 44 768.5
20210417171513 6 209 1.6 17.7 0.00 0.00 0.00 45 767.3
20210417171010 6 210 1.6 17.7 0.00 0.00 0.00 44 756.9
20210417170510 6 201 1.6 17.7 0.00 0.00 0.00 46 737.9
20210417170001 6 195 3.2 17.7 0.00 0.00 0.00 44 724.2
20210417165754 6 189 0.0 17.7 0.00 0.00 0.00 44 724.3
20210417165141 6 188 3.2 17.7 0.00 0.00 0.00 44 736.9
20210417164508 6 204 1.6 17.7 0.00 0.00 0.00 43 746.6
20210417164025 6 201 1.6 17.7 0.00 0.00 0.00 45 736.9
20210417163527 6 203 0.0 17.7 0.00 0.00 0.00 46 725.1
20210417163000 6 200 1.6 17.7 0.00 0.00 0.00 44 700.2
20210417162757 7 197 1.6 17.7 0.00 0.00 0.00 44 652.8
20210417162049 7 151 1.6 17.7 0.00 0.00 0.00 43 677.8
20210417161459 7 216 1.6 17.7 0.00 0.00 0.00 46 679.1
20210417161000 7 168 1.6 17.7 0.00 0.00 0.00 44 569.5
20210417160501 7 118 0.0 17.7 0.00 0.00 0.00 44 549.1
20210417160001 7 135 3.2 17.7 0.00 0.00 0.00 42 596.9
20210417155746 8 160 1.6 17.7 0.00 0.00 0.00 43 555.6
20210417155030 7 47 4.8 17.7 0.00 0.00 0.00 41 580.1
20210417154456 8 258 3.2 17.7 0.00 0.00 0.00 43 573.1
20210417153953 8 90 1.6 17.7 0.00 0.00 0.00 41 435.3
20210417153452 8 167 1.6 17.7 0.00 0.00 0.00 42 456.3
20210417152955 8 39 6.4 17.7 0.00 0.00 0.00 40 382.8
20210417152731 10 102 1.6 17.7 0.00 0.00 0.00 38 522.8
20210417152117 10 81 0.0 17.7 0.00 0.00 0.00 41 512.7
20210417151511 10 211 1.6 17.7 0.00 0.00 0.00 39 686.5
20210417151018 10 186 4.8 17.7 0.00 0.00 0.00 38 601.7
20210417150448 11 169 1.6 17.7 0.00 0.00 0.00 39 628.2
20210417145948 10 169 3.2 17.7 0.00 0.00 0.00 38 615.3
20210417145819 10 130 3.2 17.7 0.00 0.00 0.00 38 614.1
20210417145151 10 188 1.6 17.7 0.00 0.00 0.00 38 595.1
20210417144446 10 111 4.8 17.7 0.00 0.00 0.00 39 488.9
20210417143946 10 159 3.2 17.7 0.00 0.00 0.00 39 563.5
20210417143446 10 174 4.8 17.7 0.00 0.00 0.00 37 487.9
20210417142948 11 66 1.6 17.7 0.00 0.00 0.00 37 435.9
20210417142826 11 103 1.6 17.7 0.00 0.00 0.00 36 495.9
20210417142154 10 107 3.2 17.7 0.00 0.00 0.00 37 468.8
20210417141449 10 61 3.2 17.7 0.00 0.00 0.00 38 410.7
20210417140947 11 165 1.6 17.7 0.00 0.00 0.00 35 475.9
20210417140446 10 98 1.6 17.7 0.00 0.00 0.00 36 444.5
20210417140035 10 115 3.2 17.7 0.00 0.00 0.00 36 402.5
20210417135844 10 17 4.8 17.7 0.00 0.00 0.00 34 398.2
20210417135218 11 147 3.2 17.7 0.00 0.00 0.00 35 483.1
20210417134443 11 76 3.2 17.7 0.00 0.00 0.00 34 445.1
20210417133950 11 158 3.2 17.7 0.00 0.00 0.00 35 501.6
20210417133441 11 158 1.6 17.7 0.00 0.00 0.00 37 496.8
20210417132943 10 130 3.2 17.7 0.00 0.00 0.00 36 447.8
20210417132745 10 74 1.6 17.7 0.00 0.00 0.00 36 457.8
20210417132126 10 88 6.4 17.7 0.00 0.00 0.00 35 533.7
20210417131440 10 184 3.2 17.7 0.00 0.00 0.00 36 571.1
20210417130940 10 88 3.2 17.7 0.00 0.00 0.00 38 485.4
20210417130439 10 160 4.8 17.7 0.00 0.00 0.00 36 502.7
20210417125938 10 88 3.2 17.7 0.00 0.00 0.00 37 434.5
20210417125831 10 75 8.0 17.7 0.00 0.00 0.00 37 456.2
20210417125117 10 94 4.8 17.7 0.00 0.00 0.00 36 491.1
20210417124440 10 95 4.8 17.7 0.00 0.00 0.00 36 527.8
20210417123938 10 172 6.4 17.7 0.00 0.00 0.00 38 547.8
20210417123442 10 125 3.2 17.7 0.00 0.00 0.00 38 521.2
20210417122942 10 115 4.8 17.7 0.00 0.00 0.00 38 521.4
20210417122319 10 62 3.2 17.7 0.00 0.00 0.00 37 458.7
20210417121442 10 127 4.8 17.7 0.00 0.00 0.00 39 527.4
20210417120939 10 127 1.6 17.7 0.00 0.00 0.00 40 545.6
20210417120439 10 170 4.8 17.7 0.00 0.00 0.00 39 576.1
20210417120020 10 106 3.2 17.7 0.00 0.00 0.00 40 489.0
20210417115310 10 115 4.8 17.7 0.00 0.00 0.00 40 524.7
20210417114440 10 160 3.2 17.7 0.00 0.00 0.00 39 555.5
20210417113942 10 110 3.2 17.7 0.00 0.00 0.00 39 527.3
20210417113437 10 139 4.8 17.7 0.00 0.00 0.00 40 576.0
20210417113057 10 137 4.8 17.7 0.00 0.00 0.00 39 558.1
20210417112903 10 142 3.2 17.7 0.00 0.00 0.00 42 574.7
20210417112241 9 137 6.4 17.7 0.00 0.00 0.00 41 596.7
20210417111435 10 163 4.8 17.7 0.00 0.00 0.00 39 583.0
20210417110935 10 113 4.8 17.7 0.00 0.00 0.00 38 532.3
20210417110433 10 145 4.8 17.7 0.00 0.00 0.00 40 564.9
20210417110031 10 166 1.6 17.7 0.00 0.00 0.00 42 561.7
20210417105848 9 135 4.8 17.7 0.00 0.00 0.00 42 592.4
20210417105124 9 136 3.2 17.7 0.00 0.00 0.00 42 613.4
20210417104434 9 156 4.8 17.7 0.00 0.00 0.00 41 613.2
20210417103935 9 149 3.2 17.7 0.00 0.00 0.00 43 603.4
20210417103440 8 174 9.7 17.7 0.00 0.00 0.00 43 632.6
20210417103102 8 178 3.2 17.7 0.00 0.00 0.00 42 588.2
20210417102758 8 77 3.2 17.7 0.00 0.00 0.00 43 489.6
20210417102110 8 146 4.8 17.7 0.00 0.00 0.00 44 541.6
20210417101435 8 109 4.8 17.7 0.00 0.00 0.00 43 532.1
20210417100943 8 142 4.8 17.7 0.00 0.00 0.00 44 555.5
20210417100433 8 114 4.8 17.7 0.00 0.00 0.00 44 489.3
20210417095935 8 80 3.2 17.7 0.00 0.00 0.00 43 498.3
20210417095649 8 88 3.2 17.7 0.00 0.00 0.00 45 513.2
20210417095052 8 103 3.2 17.7 0.00 0.00 0.00 46 559.0
20210417094454 8 163 6.4 17.7 0.00 0.00 0.00 45 629.7
20210417093933 8 134 3.2 17.7 0.00 0.00 0.00 47 607.9
20210417093434 8 154 4.8 17.7 0.00 0.00 0.00 46 604.5
20210417092930 8 200 3.2 17.7 0.00 0.00 0.00 45 579.6
20210417092726 8 132 3.2 17.7 0.00 0.00 0.00 46 540.3
20210417092032 8 115 3.2 17.7 0.00 0.00 0.00 47 570.1
20210417091429 8 177 6.4 17.7 0.00 0.00 0.00 45 593.8
20210417090930 8 126 3.2 17.7 0.00 0.00 0.00 46 505.9
20210417090429 8 105 3.2 17.7 0.00 0.00 0.00 45 521.3
20210417085957 8 113 3.2 17.7 0.00 0.00 0.00 46 548.5
20210417085849 8 117 3.2 17.7 0.00 0.00 0.00 46 545.2
20210417085034 7 145 3.2 17.7 0.00 0.00 0.00 48 532.9
20210417084433 7 133 1.6 17.7 0.00 0.00 0.00 48 516.9
20210417083928 7 131 3.2 17.7 0.00 0.00 0.00 48 512.1
20210417083427 7 120 3.2 17.7 0.00 0.00 0.00 48 490.7
20210417082927 7 99 4.8 17.7 0.00 0.00 0.00 49 456.9
20210417082700 7 98 3.2 17.7 0.00 0.00 0.00 50 431.6
20210417081954 7 75 3.2 17.7 0.00 0.00 0.00 50 456.3
20210417081428 6 112 6.4 17.7 0.00 0.00 0.00 51 463.9
20210417080926 6 107 3.2 17.7 0.00 0.00 0.00 51 468.5
20210417080427 6 78 9.7 17.7 0.00 0.00 0.00 50 464.3
20210417075926 7 144 3.2 17.7 0.00 0.00 0.00 51 526.1
20210417075804 7 120 3.2 17.7 0.00 0.00 0.00 52 513.3